Uitslag Pocolocoroeseltriatlon top 3

# Naam Totaal
1 Sabbe Jasper 00:59:19 91.00
2 Callebaut Hannes 01:00:12 89.14
3 Pieter Vanhee 01:01:45 78.50
4 De Wannemaeker Nick 01:03:32 86.65
5 Gabriel David 01:03:57 86.34
6 De Donder Hadwin 01:05:13 85.40
7 Vandewiele Karel 01:05:14 85.38
8 Veranneman Tom 01:05:36 85.11
9 Bruffaerts Stefaan 01:06:18 84.59
10 Tritar Mehdi 01:06:32 84.41
11 Bruyneel Stijn 01:06:44 84.27
12 Debaeke Jelmer 01:07:00 84.07
13 Vanhoutte Jaron 01:07:07 83.98
14 Beernaert Jochen 01:07:30 83.69
15 Devloo Dries 01:07:31 83.68
16 Anton Vanhee 01:07:41 72.91
17 Bodere Joachim 01:07:45 83.51
18 Defauw lieven 01:08:10 83.20
19 Jonas Velghe 01:08:15 72.49
20 Parrein Jans 01:08:24 83.02
21 Vandenberghe Rudi 01:08:31 82.93
22 Vanderhaeghe Alexander 01:08:49 82.71
23 Pattyn Pieter 01:09:10 71.81
24 Dieter Vercaigne 01:09:17 71.72
25 Salomez Carl 01:09:18 82.35
26 Tuur Depoortere 01:09:39 71.45
27 Gallein Sofie 01:09:58 71.22
28 Vandekerkhovd Margot 01:09:59 81.84
29 Feryn Dries 01:10:13 81.67
30 Gheysens Jan 01:10:27 81.49
31 Van De Velde Stieven 01:10:48 81.23
32 De Backer Mattias 01:10:53 81.17
33 Nick Decroix 01:11:00 70.45
34 Bogaert Tybo 01:11:25 80.77
35 Tim Vanbelle 01:11:31 70.07
36 Vandevyver Brecht 01:11:43 69.92
37 Tom Matton 01:11:47 69.87
38 Cornelis Jan 01:11:50 80.46
39 Decock Lucas 01:11:58 80.36
40 Van Hoecke Ann-sophie 01:11:59 69.72
41 Michiel De Witte 01:12:10 69.59
42 Feys Bert 01:12:26 80.01
43 Simoens Tom 01:12:38 79.86
44 Versaevel Emiel 01:12:40 79.84
45 Cauwelier Thijs 01:12:54 69.04
46 Pype Bene 01:13:02 79.56
47 Van Eenoo Geert 01:13:11 79.45
48 Pieterjan De Muinck 01:13:11 68.84
49 Decoene Sam 01:13:16 79.39
50 Keuppens Evelien 01:13:20 68.72
51 Deweer Arne 01:13:22 79.32
52 Cuvelier Dieter 01:13:28 79.24
53 Lateur Dieter 01:13:49 78.98
54 Blontia Nico 01:13:54 78.92
55 debaets Stevie 01:13:57 78.88
56 Acke Wim 01:13:58 78.87
57 Storme Anke 01:14:00 68.23
58 Decoene Thomas 01:14:00 78.84
59 De Keulenaer Wim 01:14:02 78.82
60 Callewaert Emmily 01:14:03 68.19
61 Saelen Alex 01:14:07 68.14
62 Deboeuf Laurens 01:14:14 78.67
63 Verstraete Ruben 01:14:35 78.41
64 Frederik Dousy 01:14:39 67.75
65 Desmet Lieven 01:14:54 78.17
66 De Witte Stijn 01:14:54 78.17
67 Copermans Robin 01:15:11 67.35
68 de maeyer jan 01:15:15 77.91
69 Lemahieu Isi 01:15:30 77.72
70 BenoÎt Maerten 01:15:32 67.10
71 Vanysacker Pieter 01:15:34 77.67
72 Lesage Wim 01:15:35 77.66
73 Van Grootven Bastiaan 01:15:40 77.60
74 Vervruysse Francis 01:15:41 66.98
75 Ghekiere Magalie 01:15:46 77.52
76 Tempelaere Brecht 01:15:50 77.47
77 Lobeau Tim 01:15:52 77.45
78 Rosez Diederik 01:15:54 77.42
79 Vandenbulcke Servaas 01:16:16 66.55
80 Geerardyn Nicolas 01:16:16 77.15
81 Bruneel Kennith 01:16:16 77.15
82 Carly Rien 01:16:16 77.15
83 Vansteenkiste Stephan 01:16:16 77.15
84 Moerman Nathalie 01:16:26 66.43
85 Gruyaert Klaas 01:16:36 66.31
86 Trenson Nico 01:16:39 66.27
87 Dhaenens Marijn 01:16:41 76.84
88 Christophe Caesemaeker 01:16:47 66.17
89 Wim Denolf 01:16:57 66.05
90 Vande Vyvere Thomas 01:17:49 75.99
91 Vandevelde Liesbeth 01:17:50 65.39
92 Sander Vandendriessche 01:17:56 65.32
93 Petro Versieren 01:17:57 65.31
94 Vandeputte Simon 01:18:04 75.81
95 Lapere Bram 01:18:07 75.77
96 Verelst Joeri 01:18:13 65.11
97 Aelter Joris 01:18:25 64.96
98 Ghekiere Philip 01:18:31 75.47
99 Meeus Jeff 01:18:39 75.37
100 Clauw Björn 01:18:39 75.37
101 Vandille Thomas 01:18:49 75.25
102 France Bart 01:18:50 64.65
103 Declerck Alexander 01:18:54 75.19
104 Van De Walle Steven 01:18:56 64.58
105 Van Hellemont Peter 01:18:59 75.12
106 Bruneel Marjan 01:19:25 64.22
107 Stijn Spriet 01:19:26 64.21
108 Cartreul Annelies 01:19:32 64.13
109 Lyphout Bart 01:19:33 74.70
110 Vandepitte Josefien 01:19:40 64.04
111 Devos Ewout 01:19:42 74.59
112 Tampere Kristof 01:19:49 74.50
113 Raes Els 01:19:50 63.91
114 Verschoot Matthias 01:20:00 63.79
115 Byltiauw Matthias 01:20:01 74.35
116 Braet David 01:20:16 74.17
117 Geuns Justine 01:20:20 63.54
118 Warmoes Jan 01:20:34 73.94
119 Dael Koen 01:20:39 73.88
120 Van Den Noortgate Lisa 01:20:48 63.20
121 Stijn Piepers 01:20:52 63.15
122 Mispelaere Marieke 01:21:00 73.62
123 De Donder Ewout 01:21:04 73.57
124 Dourte Yente 01:21:09 62.94
125 Lagacie Pieter 01:21:20 73.37
126 Bottecaer Bram 01:21:25 73.31
127 Tally Lisa 01:21:27 62.71
128 Bortier Jurgen 01:21:37 73.16
129 Vanderhaeghe Dries 01:21:40 73.12
130 Desmet Frederick 01:21:44 62.50
131 Vansteenkiste Joyce 01:21:53 62.39
132 Defour Maarten 01:22:00 62.31
133 Duhamel Ann 01:22:12 62.16
134 Vanhaverbeke GaËlle 01:22:46 72.30
135 Duyck-leman AnnaËl 01:22:47 72.29
136 Vandendriessche Delphine 01:22:51 61.68
137 Jeroen Van Autreve 01:22:58 61.59
138 Schelpe Johan 01:22:59 72.14
139 Notredame Kristof 01:23:02 72.10
140 Dendooven Matthias 01:23:03 72.09
141 Vangilbergen Hilde 01:23:11 61.43
142 Aerts Ilse 01:23:13 61.41
143 Dejagere Thomas 01:23:17 61.36
144 Pieters Maarten 01:23:27 71.79
145 Braeye Toon 01:23:31 71.74
146 Soete Elisabeth 01:23:33 71.72
147 Ketels Jens 01:23:37 71.67
148 Verstraete Elien 01:23:42 61.05
149 Vansteenkiste Charles 01:23:50 60.95
150 Vervenne Charlotte 01:24:02 60.80
151 Tarras Remi 01:24:06 71.31
152 Geuns Isolde 01:24:22 60.56
153 Castelein Matthias 01:24:30 71.01
154 Moeyaert Nicolas 01:24:34 60.41
155 Denolf Peter 01:24:37 70.92
156 Hemelaere Harold 01:24:43 70.85
157 Bleu Astrid 01:25:06 60.01
158 Goegebeur Tom 01:25:16 70.43
159 Cracco Dries 01:25:18 70.41
160 Dupont Tom 01:25:20 59.84
161 Van Zandycke 01:25:22 70.36
162 Annedien Enter 01:25:26 70.31
163 Demuynck Evelien 01:25:31 59.70
164 Wylin Janos 01:25:47 59.51
165 Buyse Karel 01:26:04 59.30
166 Lambelin Andy 01:26:33 69.48
167 Brusselle Charlotte 01:26:34 58.93
168 Anckaert Matti 01:26:36 58.90
169 Dewulf Sien 01:26:36 69.44
170 Lauwens Nathan 01:26:42 58.83
171 Delannoy Jens 01:26:50 69.27
172 De Roy Britt 01:26:57 58.64
173 Van Troostenberghe Thijs 01:26:58 58.63
174 Lebbe Patricia 01:26:58 58.63
175 verlinde lindsay 01:27:05 58.54
176 Vandenbroucke Emilie 01:27:10 69.02
177 Tally Simon 01:27:12 58.46
178 Benjamin Clerebout 01:27:34 58.19
179 Vansteenbrugge Sam 01:27:52 57.96
180 Vandekerckhove Bruno 01:28:10 68.27
181 Xerxes Platteeuw 01:28:11 57.73
182 Bonte Vincent 01:28:39 57.38
183 Vanhaecke Maxime 01:28:44 57.32
184 Maes Magali 01:28:52 67.75
185 Charis D.milonas 01:28:58 67.67
186 Naessens Kjell 01:29:08 57.03
187 D'hont Davy 01:29:10 57.00
188 Maaike Craeynest 01:29:12 67.50
189 Lambrecht Mathieu 01:29:13 67.49
190 Ameel Bernd 01:29:24 56.83
191 Goeminne Kurt 01:29:27 56.79
192 GabriËls Sofie 01:29:29 67.29
193 Carlier Simon 01:29:35 56.69
194 Van Moere Kris 01:29:36 67.20
195 Lannoy Leen 01:29:42 67.13
196 Verlinde Robin 01:29:46 67.08
197 Lepoutre Bjorn 01:29:54 56.46
198 D’hoop Kaat 01:30:02 66.88
199 Geerardyn Gino 01:30:16 66.70
200 Johan Cokelaere 01:30:24 56.09
201 Lucero Pablo 01:30:28 56.04
202 Lebegge Lies 01:30:35 66.47
203 Verlinde Dirk 01:30:42 66.38
204 Staelens Simon 01:30:50 55.77
205 Delputte Louise 01:30:51 66.27
206 Myny Dries 01:30:54 66.23
207 Ryckebosch Mathieu 01:30:57 55.68
208 Vangheluwe Virginie 01:31:00 55.64
209 Simon Wostyn 01:31:16 55.45
210 Verdickt Berten 01:31:22 55.37
211 Van Tomme Kate 01:31:39 65.67
212 Ryde Dieter 01:31:42 55.13
213 Deltour Christophe 01:31:42 55.13
214 Callens Jonas 01:31:46 65.58
215 Saar Buyse 01:31:48 65.56
216 Brackeva Brecht 01:31:55 65.47
217 Haulet Benjamin 01:32:11 54.77
218 Luyckx Mathias 01:32:19 54.67
219 George Nico 01:32:31 54.52
220 De Geest Hanne 01:32:39 64.93
221 Callewier Nike 01:32:59 64.68
222 Notredame Kelly 01:33:44 64.12
223 Vangheluwe Silke 01:33:54 63.99
224 Deforche Maxime 01:34:16 63.72
225 Willems Stijn 01:34:52 63.27
226 Sansen Stijn 01:35:25 62.86
227 Dockers Sanne 01:35:32 52.29
228 Kerkhof Kris 01:35:35 52.25
229 Huvaere Ann 01:35:53 62.51
230 Labaere Sharon 01:36:12 62.28
231 Luk Buyse 01:37:16 51.00
232 Sofie De Ruytter 01:37:44 61.13
233 Joole Peter 01:38:01 50.45
234 Clockaerts Michael 01:38:31 60.55
235 Nimmegeers Anneleen 01:39:03 60.15
236 Vanneste Heidi 01:39:16 49.52
237 Soete Hitoshi 01:39:17 49.51
238 Vanhaverbeke Luc 01:40:00 59.44
239 Impens Tessa 01:40:20 59.19
240 Verstraete Stefaan 01:40:43 58.91
241 Pissierssens Sarah 01:41:29 58.33
242 Gentier Chris 01:41:48 58.10
243 Greidanus Koert 01:42:01 47.49
244 Taghon Dimitri 01:42:13 57.79
245 Vangampelaere Valerie 01:42:17 47.29
246 Herbiet Lucy 01:42:20 57.70
247 Tarras Eva 01:43:14 46.59
248 Peeters Joeri 01:43:46 56.63
249 Verdonck Leen 01:44:01 56.44
250 Roobaert Arnaud 01:45:06 45.21
251 MichaËl Verest 01:45:09 45.17
252 Vanhecke Stan 01:46:10 54.84
253 Van Puymbroeck Thomas 01:46:55 42.86
254 Verschaeren Yana 01:50:48 51.38
255 Deroo Johan 02:02:36 42.58
256 De Mets Jessica 02:19:15 29.15

Reacties

  • Nog geen reacties beschikbaar